Location: Peterborough
(44.3091°N, 78.3197°W)
Time: 05:52:30
(UTC-04:00)

Vanguard 3 - Pass Details

Date: 25 March 2023
Orbit: 507 x 3246 km, 33.4° (Epoch: 04 June)

Event Time Altitude Azimuth Distance (km) Brightness Sun altitude
Rises 08:59:33 0° 274° (W) 7,151 11.4 19.0°
Reaches altitude 10° 09:05:00 10° 269° (W) 5,961 11.1 19.9°
Maximum altitude 09:20:38 41° 208° (SSW) 3,099 10.3 22.6°
Drops below altitude 10° 09:30:47 10° 143° (SE) 3,922 11.8 24.2°
Sets 09:33:36 0° 135° (SE) 4,580 12.1 24.7°
